Probability
0 0 0 0 0 0 0 0 0 0 0 0 0 0 3 3 3 3 3 0 3 3 0 3 3 3 0 3 6 6 10 13 13 10 16 16 19 26
0 0 0 0 0 0 0 0 0 0 0 0 0 0 3 0 3 3 3 0 0 3 0 0 0 0 0 0 0 0 0 0 0 0 0 3 3 6
0 0 0 0 0 0 3 3 0 0 0 0 0 0 0 3 3 3 3 6 3 0 0 0 0 0 0 0 0 0 0 0 0 0 0 0 0 0
0 0 0 0 0 0 6 3 3 0 0 0 0 3 3 3 3 3 3 3 6 0 0 0 0 0 0 0 0 0 0 0 0 0 0 0 0 0
0 0 0 0 0 0 0 0 0 0 0 0 0 3 3 0 3 6 3 13 0 0 0 0 0 0 0 0 0 0 0 0 0 0 0 0 0 0
0 0 0 0 0 0 0 0 0 0 0 0 0 0 6 3 3 3 0 6 0 0 0 0 0 0 0 0 0 0 0 0 0 0 0 0 0 0
0 0 0 0 0 0 0 0 0 0 3 3 0 0 0 0 0 3 0 3 6 0 0 0 0 0 0 0 0 0 0 0 0 0 0 0 0 0
0 0 0 0 0 0 0 0 0 0 0 0 3 0 0 0 0 0 0 3 0 0 0 0 0 0 0 0 0 0 0 0 0 0 0 0 0 0
0 0 0 0 0 0 0 0 0 0 0 0 0 0 0 0 0 3 0 0 0 0 0 0 0 0 3 0 0 0 0 0 0 0 0 0 0 0
0 0 0 0 0 0 0 0 0 0 0 0 0 0 0 0 0 0 0 0 0 0 0 0 0 0 0 0 0 0 0 0 0 0 0 0 0 0
0 0 0 0 0 0 0 0 0 0 0 0 0 0 0 0 0 0 0 0 0 0 0 0 0 0 0 0 0 0 0 0 0 0 0 0 0 0
0 0 0 0 0 0 0 0 0 0 0 0 0 0 0 0 0 0 0 0 0 0 0 0 0 0 0 0 0 0 0 0 0 0 0 0 0 0
0 0 0 0 0 0 0 0 0 0 0 0 0 0 0 0 0 0 0 0 0 0 0 0 0 0 0 0 0 0 0 0 0 0 0 0 0 0
0 0 0 0 0 0 0 0 0 0 0 0 0 0 0 0 0 0 0 0 0 0 0 0 0 0 0 0 0 0 0 0 0 0 0 0 0 0
0 0 0 0 0 0 0 0 0 0 0 0 0 0 0 0 0 0 0 0 0 0 0 0 0 0 0 0 0 0 0 0 0 0 0 0 0 0
0 0 0 0 0 0 0 0 0 0 0 0 0 0 0 0 0 0 0 0 0 0 0 0 0 0 0 0 0 0 0 0 0 0 0 0 0 0
0 0 0 0 0 0 0 0 0 0 0 0 0 0 0 0 0 0 0 0 0 0 0 0 0 0 0 0 0 0 0 0 0 0 0 0 0 0
0 0 0 0 0 0 0 0 0 0 0 0 0 0 0 0 0 0 0 0 0 0 0 0 0 0 0 0 0 0 0 0 0 0 0 0 0 0
0 0 0 0 0 0 0 0 0 0 0 0 0 0 0 0 0 0 0 0 0 0 0 0 0 0 0 0 0 0 0 0 0 0 0 0 0 0
0 0 0 0 0 0 0 0 0 0 0 0 0 0 0 0 0 0 0 0 0 0 0 0 0 0 0 0 0 0 0 0 0 0 0 0 0 0
0 0 0 0 0 0 0 0 0 0 0 0 0 0 0 0 0 0 0 0 0 0 0 0 0 0 0 0 0 0 0 0 0 0 0 0 0 0
0 0 0 0 0 0 0 0 0 0 0 0 0 0 0 0 0 0 0 0 0 0 0 0 0 0 0 0 0 0 0 0 0 0 0 0 0 0
0 0 0 0 0 0 0 0 0 0 0 0 0 0 0 0 0 0 0 0 0 0 0 0 0 0 0 0 0 0 0 0 0 0 0 0 0 0
Height
5853 5851 5850 5849 5848 5847 5846 5845 5845 5844 5843 5843 5842 5842 5842 5842 5843 5844 5845 5846 5848 5849 5851 5852 5854 5855 5857 5859 5860 5862 5864 5866 5868 5870 5872 5873 5875 5877
5853 5852 5850 5849 5848 5847 5845 5844 5843 5843 5842 5841 5841 5841 5840 5840 5840 5841 5842 5843 5845 5846 5848 5849 5851 5852 5854 5855 5857 5858 5860 5862 5864 5865 5866 5868 5870 5871
5853 5852 5850 5849 5848 5846 5845 5844 5843 5842 5841 5840 5839 5839 5838 5838 5838 5838 5839 5840 5841 5843 5844 5845 5847 5848 5849 5851 5852 5854 5855 5857 5858 5859 5860 5862 5864 5865
5852 5851 5850 5848 5847 5846 5844 5843 5842 5840 5839 5838 5837 5836 5836 5836 5835 5835 5836 5836 5837 5838 5840 5841 5843 5844 5845 5846 5847 5848 5850 5851 5852 5853 5854 5856 5857 5859
5851 5850 5848 5847 5846 5844 5843 5841 5840 5839 5837 5836 5835 5834 5833 5832 5832 5832 5832 5833 5833 5834 5835 5836 5837 5838 5839 5840 5841 5842 5843 5844 5845 5846 5847 5849 5850 5852
5849 5848 5846 5845 5843 5842 5841 5839 5838 5836 5835 5834 5832 5831 5830 5829 5829 5828 5828 5829 5829 5830 5830 5831 5832 5833 5833 5834 5835 5836 5837 5837 5838 5839 5840 5841 5842 5844
5847 5845 5844 5842 5841 5839 5838 5836 5835 5833 5832 5830 5829 5828 5827 5826 5825 5824 5824 5824 5824 5824 5825 5825 5825 5826 5827 5827 5828 5828 5829 5830 5830 5831 5832 5833 5834 5835
5843 5842 5840 5839 5837 5835 5834 5832 5831 5829 5828 5826 5825 5823 5822 5821 5820 5819 5819 5818 5818 5818 5818 5818 5818 5818 5818 5819 5819 5820 5820 5821 5821 5822 5823 5824 5825 5826
5839 5837 5835 5834 5832 5831 5829 5827 5826 5824 5823 5821 5819 5818 5816 5815 5814 5813 5812 5812 5811 5810 5810 5810 5810 5809 5809 5809 5810 5810 5810 5811 5812 5812 5813 5814 5815 5816
5833 5831 5830 5828 5826 5824 5823 5821 5820 5818 5816 5815 5813 5811 5810 5808 5807 5806 5804 5804 5803 5801 5800 5800 5800 5799 5799 5799 5799 5799 5799 5799 5800 5801 5802 5803 5804 5805
5827 5825 5823 5821 5819 5817 5816 5814 5812 5811 5809 5807 5805 5803 5801 5800 5798 5796 5795 5794 5793 5792 5790 5789 5788 5787 5787 5787 5787 5786 5786 5787 5787 5788 5789 5790 5792 5793
5819 5817 5815 5813 5811 5809 5807 5805 5804 5802 5800 5798 5796 5794 5792 5790 5787 5785 5784 5782 5781 5780 5778 5776 5775 5773 5774 5774 5773 5773 5772 5773 5773 5774 5775 5776 5777 5778
5810 5808 5806 5804 5802 5800 5798 5796 5794 5792 5790 5788 5786 5783 5781 5778 5776 5773 5771 5769 5768 5767 5765 5762 5761 5759 5758 5759 5759 5759 5758 5758 5758 5759 5760 5761 5762 5763
5802 5799 5797 5795 5793 5791 5788 5786 5783 5781 5779 5777 5774 5771 5769 5766 5763 5761 5758 5756 5753 5752 5750 5747 5745 5743 5742 5742 5743 5743 5743 5743 5742 5743 5744 5745 5746 5747
5792 5790 5788 5785 5782 5780 5778 5774 5772 5769 5766 5764 5761 5759 5756 5753 5750 5748 5745 5742 5740 5737 5734 5731 5729 5728 5726 5726 5727 5727 5727 5726 5726 5726 5727 5728 5729 5731
5782 5780 5777 5774 5771 5768 5765 5762 5759 5756 5753 5750 5747 5745 5742 5739 5736 5733 5731 5728 5725 5722 5719 5715 5713 5711 5710 5709 5709 5709 5709 5709 5709 5708 5709 5710 5712 5713
5771 5768 5765 5762 5758 5755 5752 5748 5745 5742 5739 5736 5733 5730 5727 5724 5721 5718 5714 5711 5708 5706 5703 5700 5696 5694 5693 5692 5691 5691 5691 5691 5691 5690 5691 5692 5694 5696
5759 5756 5753 5749 5745 5742 5738 5735 5731 5728 5724 5721 5718 5715 5711 5708 5704 5700 5697 5693 5690 5688 5685 5682 5679 5676 5675 5674 5673 5672 5672 5672 5672 5672 5672 5673 5676 5679
5747 5743 5740 5736 5732 5728 5724 5720 5717 5713 5709 5706 5702 5698 5694 5690 5686 5683 5679 5675 5672 5669 5666 5663 5659 5657 5656 5656 5656 5653 5652 5653 5653 5653 5654 5655 5658 5661
5734 5730 5726 5722 5718 5714 5710 5706 5702 5698 5694 5689 5685 5681 5677 5672 5668 5665 5661 5657 5654 5650 5647 5644 5640 5637 5635 5635 5636 5637 5634 5633 5633 5634 5636 5637 5639 5642
5720 5716 5712 5708 5703 5699 5695 5691 5686 5682 5677 5673 5668 5664 5659 5655 5651 5647 5643 5639 5635 5631 5628 5626 5622 5619 5616 5615 5616 5617 5616 5615 5614 5615 5616 5617 5620 5623
5705 5701 5697 5692 5688 5683 5679 5674 5670 5665 5660 5656 5651 5647 5642 5637 5633 5629 5625 5621 5617 5613 5609 5607 5603 5600 5598 5596 5596 5597 5597 5597 5596 5596 5596 5598 5600 5604
5690 5686 5681 5677 5672 5667 5663 5658 5653 5648 5644 5639 5635 5630 5625 5621 5616 5611 5607 5603 5599 5595 5592 5589 5586 5583 5581 5579 5578 5578 5578 5578 5578 5578 5580 5581 5583 5586
Wind_Speed
8 7 6 6 5 5 5 4 4 5 5 5 6 7 8 10 11 13 14 16 17 17 18 19 20 20 21 22 22 23 23 24 26 26 27 28 28 28
7 7 7 6 7 6 6 6 5 5 6 6 7 8 8 10 11 13 14 16 17 17 18 18 20 21 22 24 24 24 25 26 27 27 27 28 29 29
7 7 7 7 7 8 7 7 7 7 7 8 8 9 10 10 11 13 14 16 17 18 19 20 21 21 22 23 25 26 27 27 27 28 28 29 30 30
8 8 9 9 8 9 8 8 8 9 9 9 10 10 11 12 12 14 14 15 17 19 20 21 22 23 23 24 25 26 27 28 28 29 29 30 30 30
9 10 10 10 10 10 10 10 10 11 11 11 11 11 12 13 14 15 16 17 18 19 21 22 24 25 24 25 26 27 28 29 29 29 30 30 31 31
11 12 12 12 12 12 12 12 13 13 13 13 13 13 13 14 15 16 17 18 20 21 22 23 25 26 27 27 28 29 30 30 30 31 32 32 33 33
13 14 14 14 14 14 14 15 15 15 15 15 15 15 16 16 17 18 19 20 21 22 23 25 26 28 29 29 30 31 32 33 33 32 33 34 34 34
16 16 16 16 16 16 17 17 17 17 18 18 18 19 19 19 19 20 21 22 23 24 25 27 28 29 30 32 33 34 35 36 36 36 35 36 36 36
18 19 19 19 19 19 19 19 20 20 21 21 21 21 22 22 23 23 24 25 26 27 29 29 31 32 33 34 35 36 36 37 38 38 38 38 38 38
21 22 22 22 22 22 22 22 23 24 24 24 25 25 25 26 26 27 28 28 29 31 32 33 34 35 35 37 38 38 40 40 40 40 40 40 41 41
24 24 24 24 24 25 25 26 26 27 27 28 28 28 29 29 30 31 31 32 33 34 35 36 37 38 39 39 40 41 41 42 43 43 43 43 43 43
26 26 27 27 28 28 28 29 29 30 30 31 31 32 33 33 34 34 35 36 36 37 38 39 40 41 41 41 42 42 43 44 44 45 45 46 46 47
29 29 29 30 30 31 31 32 33 33 34 34 35 36 37 37 37 38 38 39 39 40 41 42 42 43 44 43 44 44 44 45 46 46 47 47 48 49
31 31 32 32 33 34 35 35 36 36 37 38 38 39 39 39 39 40 40 41 42 43 43 45 45 45 46 46 45 46 47 47 48 49 49 49 50 50
33 34 35 35 36 36 37 38 38 39 40 40 41 41 41 42 42 42 43 44 45 46 46 47 48 48 47 47 48 48 48 49 50 51 51 52 52 52
36 37 37 38 39 39 39 40 41 42 42 42 42 43 44 44 45 46 46 47 48 48 49 50 50 50 50 50 50 50 49 50 51 52 52 52 52 52
38 39 40 41 42 42 42 43 43 44 44 45 46 46 47 48 49 49 50 50 51 51 51 51 52 52 52 52 52 52 51 51 51 52 53 53 53 52
41 41 43 43 44 44 45 45 45 46 47 47 48 49 50 51 51 52 52 52 52 53 53 53 53 53 54 54 54 54 53 52 52 53 53 53 53 53
43 43 44 45 45 46 46 47 48 48 49 50 51 52 53 53 53 53 53 53 53 54 54 54 55 55 55 55 54 54 54 53 53 53 54 54 54 54
45 46 46 47 48 49 49 50 50 51 52 53 53 53 54 54 54 53 53 53 53 54 54 54 55 55 56 56 55 54 55 54 53 53 54 55 56 55
47 48 48 49 50 51 51 51 52 53 53 54 53 54 54 54 53 53 53 54 54 55 54 54 54 54 54 54 54 53 54 54 54 53 54 55 55 54
49 50 50 51 52 53 53 53 53 53 54 53 53 53 53 53 53 54 54 54 54 54 53 52 52 53 52 52 51 51 51 52 52 52 52 53 53 52
51 52 52 52 53 54 54 54 54 54 54 54 53 53 53 53 54 54 53 53 53 52 51 50 50 51 50 50 50 49 49 49 50 50 50 51 51 51
Wind_Direction
19 18 16 10 5 360 351 337 322 308 299 293 282 274 269 261 253 244 241 240 239 238 238 238 236 236 237 238 238 238 240 240 240 240 240 242 244 243
15 14 8 4 357 348 342 336 327 316 304 297 291 281 275 268 261 252 249 247 244 242 241 241 241 244 243 242 241 241 242 242 243 245 246 248 248 248
0 359 359 354 347 342 336 332 327 320 314 305 291 286 281 277 269 260 255 252 250 248 247 246 246 248 248 247 248 248 248 247 247 248 249 251 251 252
346 345 345 342 338 336 331 325 323 320 314 307 296 289 284 280 274 267 262 258 255 253 253 253 253 253 252 251 252 252 253 253 253 252 253 252 253 253
335 334 332 330 326 326 323 318 316 315 312 305 299 294 288 282 276 271 266 263 260 257 256 256 257 258 258 256 257 257 257 256 255 255 255 255 254 256
326 325 324 323 319 316 315 312 310 309 308 305 301 298 292 285 280 275 270 267 264 262 260 259 260 260 261 260 260 260 260 260 259 257 257 257 256 255
316 316 315 314 314 311 310 308 305 304 303 301 297 297 293 288 283 279 275 271 268 266 265 264 264 263 261 262 262 262 261 261 260 260 260 258 256 256
308 307 307 306 305 305 304 302 300 299 299 297 294 293 293 289 286 283 279 276 274 271 269 269 268 267 265 264 263 262 262 261 261 261 261 260 258 258
302 302 301 300 300 300 299 299 297 296 296 295 293 292 291 288 286 285 283 280 278 275 273 272 270 269 267 265 265 265 263 261 261 261 261 260 259 259
299 299 297 296 295 295 296 296 295 294 294 293 292 291 290 289 287 285 283 282 280 278 276 274 273 271 269 267 266 266 265 264 262 262 262 262 261 260
297 296 295 294 292 292 292 293 294 293 292 292 291 290 289 288 287 286 285 283 282 280 278 277 275 273 271 270 268 267 265 265 264 263 262 262 262 261
295 294 294 293 292 291 291 291 291 291 291 291 291 291 290 289 288 287 286 284 283 282 280 279 277 275 273 271 270 268 267 265 265 264 263 262 262 261
294 294 293 293 292 291 291 291 291 291 291 291 291 291 290 290 289 288 287 285 284 283 282 280 279 277 275 272 270 269 269 267 266 265 264 263 262 261
293 293 293 292 292 292 291 291 291 292 291 291 291 290 290 289 288 288 287 286 286 285 283 282 280 278 276 273 271 270 270 270 269 267 265 264 263 263
293 293 293 293 293 293 292 292 291 292 292 292 291 290 289 288 288 288 288 288 287 286 285 284 282 280 277 275 273 272 271 270 269 268 266 264 263 262
294 294 294 294 294 294 294 294 293 293 292 291 291 290 289 289 288 288 288 288 287 286 285 285 283 280 278 277 275 274 272 271 269 268 267 264 262 262
295 295 295 295 295 295 295 294 293 293 292 291 291 291 290 290 289 289 288 287 287 286 284 284 282 279 278 277 276 274 273 271 270 269 267 264 262 261
294 294 295 295 295 295 295 294 293 293 292 292 292 292 291 290 290 289 288 287 287 286 285 283 281 279 277 276 276 274 272 271 269 268 266 265 262 261
294 294 295 295 296 296 295 295 295 294 293 293 293 293 292 291 290 289 288 288 287 286 285 283 281 279 277 276 274 273 272 270 269 267 266 264 262 260
294 294 294 295 295 296 296 296 295 295 294 294 293 293 293 292 291 290 289 289 288 287 286 284 282 279 278 276 273 272 271 269 269 268 266 264 262 260
294 294 294 294 294 295 295 295 295 295 295 294 294 293 293 292 291 290 289 289 289 288 287 284 282 280 278 276 274 272 271 268 268 268 266 264 261 259
294 294 294 294 295 295 295 295 296 295 295 294 294 294 293 293 292 291 290 290 289 288 287 284 282 280 278 276 274 273 271 268 267 267 265 263 260 259
294 294 294 294 295 295 295 295 295 295 295 295 294 295 295 294 293 292 290 290 290 288 286 284 282 280 278 276 275 274 272 270 269 267 263 261 259 257